This is the latest recevied weather packets stored in our database for station/object EA3IK-1. If no packets are shown the sender has not sent any weather packets the latest 10 day(s).
| Time | Temp. | Humidity | Pressure | Rain* | Wind** | Luminosity | Snow |
|---|---|---|---|---|---|---|---|
| 1777185228 | 15.56° C | 67% | 1018.7 hPa | 0 mm | - | - | - |
| 1777184327 | 15.56° C | 65% | 1018.6 hPa | 0 mm | - | - | - |
| 1777183426 | 15° C | 64% | 1018.4 hPa | 0 mm | - | - | - |
| 1777182526 | 14.44° C | 63% | 1018.3 hPa | 0 mm | - | - | - |
| 1777181625 | 13.89° C | 61% | 1018.2 hPa | 0 mm | - | - | - |
| 1777180724 | 13.33° C | 61% | 1018.1 hPa | 0 mm | - | - | - |
| 1777179823 | 12.78° C | 65% | 1017.9 hPa | 0 mm | - | - | - |
| 1777178922 | 12.78° C | 66% | 1017.7 hPa | 0 mm | - | - | - |
| 1777178021 | 13.33° C | 67% | 1017.6 hPa | 0 mm | - | - | - |
| 1777177120 | 14.44° C | 67% | 1017.5 hPa | 0 mm | - | - | - |
| 1777176220 | 14.44° C | 67% | 1017.4 hPa | 0 mm | - | - | - |
| 1777175319 | 15° C | 65% | 1017.3 hPa | 0 mm | - | - | - |
| 1777174418 | 15° C | 65% | 1017.3 hPa | 0 mm | - | - | - |
| 1777173517 | 15° C | 65% | 1017.2 hPa | 0 mm | - | - | - |
| 1777172616 | 13.89° C | 67% | 1017.2 hPa | 0 mm | - | - | - |
| 1777171715 | 13.89° C | 69% | 1017.2 hPa | 0 mm | - | - | - |
| 1777170814 | 13.89° C | 69% | 1017.2 hPa | 0 mm | - | - | - |
| 1777169914 | 13.89° C | 69% | 1017.2 hPa | 0 mm | - | - | - |
| 1777169013 | 13.89° C | 69% | 1017.2 hPa | 0 mm | - | - | - |
| 1777168112 | 13.89° C | 69% | 1017.2 hPa | 0 mm | - | - | - |
| 1777167211 | 13.89° C | 69% | 1017.1 hPa | 0 mm | - | - | - |
| 1777166310 | 14.44° C | 70% | 1017.1 hPa | 0 mm | - | - | - |
| 1777165409 | 14.44° C | 70% | 1017.1 hPa | 0 mm | - | - | - |
| 1777164508 | 13.89° C | 70% | 1017.1 hPa | 0 mm | - | - | - |
| 1777163608 | 13.89° C | 70% | 1017.1 hPa | 0 mm | - | - | - |
* Rain latest hour (hover to see other rain measurements)
** Current wind speed in m/s (hover to see current wind gust speed)